Location: Spring Creek
(38.2870°N, 100.2160°W)
Time: 09:19:43
(UTC+00:00)

Cosmos 1812 - Pass Details

Date: 08 May 2021
Orbit: 514 x 521 km, 82.5° (Epoch: 21 June)

Event Time Altitude Azimuth Distance (km) Brightness Sun altitude
Exits shadow 04:05:54 31° 34° (NE) 934 4.1 -24.2°
Drops below altitude 10° 04:08:09 10° 18° (NNE) 1,764 5.8 -24.5°
Sets 04:10:19 0° 13° (NNE) 2,657 6.8 -24.7°
